[[{"header":{"parameterUnit":"m.s-1","parameterCategory":1,"la1":30.2991,"la2":30.254,"lo1":-89.0895,"lo2":-89.0444,"dy":0.0017,"dx":0.0017,"nx":28,"ny":28,"refTime":"2024-03-03T03:00:00:Z","depth":0,"parameterNumber":2,"parameterNumberName":"U-component_of_WINDS"},"data":[0,0,0,0,0,0,0,0,0,0,0,0,0,0,0,0,0,0,0,0,0,0,0,0,0,0,0,0,0,0,0,0,0,0,0,0,0,0,0,0,0,0,0,0,0,0,0,0,0,0,0,0,0,0,0,0,0,0,-4.3742,-4.3742,0,-4.3755,-4.3755,-4.3755,-4.3677,-4.3674,-4.3672,-4.367,-4.3681,-4.3683,-4.3685,0,0,0,0,0,0,0,0,0,0,0,0,0,-4.365,-4.3652,-4.3742,-4.3742,-4.3742,-4.3754,-4.3755,-4.3755,-4.3677,-4.3674,-4.3672,-4.3669,-4.368,-4.3683,-4.3685,0,0,0,0,0,0,0,0,0,0,0,0,0,-4.3679,-4.3653,-4.3742,-4.3705,-4.3702,-4.3754,-4.3755,-4.3755,-4.3678,-4.3674,-4.3671,-4.3668,-4.3679,-4.3682,-4.3686,-4.3774,0,0,-4.3696,-4.3698,0,0,0,0,0,0,0,0,-4.3677,-4.3682,-4.371,-4.3708,-4.3704,-4.3711,-4.3726,-4.3761,-4.3678,-4.3687,-4.367,-4.3666,-4.3693,-4.3695,-4.3705,-4.3774,-4.3774,-4.3697,-4.3699,-4.37,-4.3701,0,0,0,0,0,0,0,-4.3675,-4.3681,-4.3747,-4.3711,-4.3707,-4.3688,-4.3688,-4.3732,-4.3708,-4.3686,-4.368,-4.3683,-4.3691,-4.3702,-4.3704,-4.3775,-4.3697,-4.37,-4.3702,-4.3703,-4.3917,-4.3921,0,0,0,0,0,0,-4.3679,-4.368,-4.3746,-4.3747,-4.3682,-4.3692,-4.3692,-4.3712,-4.3708,-4.3704,-4.3686,-4.3679,-4.3697,-4.37,-4.3704,-4.3807,-4.37,-4.3704,-4.3706,-4.3914,-4.3918,-4.3922,0,0,0,0,0,0,-4.3677,-4.3685,-4.3746,-4.3712,-4.3718,-4.3697,-4.372,-4.3714,-4.3724,-4.3708,-4.3703,-4.3701,-4.3695,-4.37,-4.3757,-4.3806,-4.3705,-4.3708,-4.3909,-4.3915,-4.392,-4.4012,0,0,0,0,0,0,-4.3675,-4.3685,-4.3718,-4.3714,-4.3721,-4.3799,-4.3723,-4.3717,-4.3731,-4.3723,-4.3721,-4.3717,-4.3692,-4.3752,-4.3761,-4.3809,-4.3711,-4.3905,-4.3912,-4.3918,-4.4005,-4.402,-4.4033,0,0,0,0,0,-4.3672,-4.3743,-4.372,-4.3729,-4.3762,-4.3802,-4.3806,-4.3777,-4.3735,-4.3768,-4.3758,-4.3717,-4.38,-4.3759,-4.3768,-4.3818,-4.3902,-4.391,-4.3918,-4.3998,-4.4017,-4.4033,0,0,0,0,0,0,-4.3752,-4.3742,-4.3716,-4.3789,-4.3797,-4.3789,-4.3829,-4.3797,-4.3817,-4.3808,-4.3771,-4.3771,-4.3835,-4.3832,-4.3787,-4.3903,-4.3843,-4.3854,-4.3902,-4.3919,-4.3934,-4.3932,-4.3714,0,0,0,0,0,-4.3779,-4.3813,-4.3802,-4.3867,-4.3873,-4.3851,-4.3867,-4.3844,-4.3851,-4.3854,-4.3847,-4.3855,-4.3882,-4.3901,-4.3925,-4.4005,-4.4003,-4.4044,-4.4058,-4.407,-4.4078,-4.412,-4.4138,-4.3948,-4.3948,-4.3948,0,0,-4.3834,-4.3832,-4.3856,-4.3883,-4.3887,-4.3923,-4.3854,-4.3894,-4.392,-4.3859,-4.3913,-4.391,-4.3915,-4.3985,-4.4015,-4.3984,-4.4131,-4.408,-4.409,-4.4092,-4.413,-4.4148,-4.4164,-4.3954,-4.3953,-4.3952,0,0,-4.3951,-4.3954,-4.4008,-4.4014,-4.4021,-4.4007,-4.402,-4.4017,-4.4013,-4.4067,-4.4022,-4.4052,-4.4101,-4.4107,-4.4117,-4.424,-4.4203,-4.4249,-4.4322,-4.4364,-4.4379,-4.4392,-4.4435,-4.4451,-4.4258,-4.4258,-4.4258,0,-4.4017,-4.407,-4.404,-4.4084,-4.4097,-4.4046,-4.4101,-4.4108,-4.4122,-4.4132,-4.4099,-4.4159,-4.416,-4.423,-4.426,-4.427,-4.4283,-4.4247,-4.4379,-4.4392,-4.4404,-4.4444,-4.446,-4.4263,-4.4263,-4.4262,-4.4262,0,-4.4151,-4.4189,-4.4232,-4.4248,-4.4267,-4.4316,-4.4293,-4.4316,-4.4292,-4.4281,-4.4337,-4.4337,-4.436,-4.4376,-4.4353,-4.4443,-4.4424,-4.4386,-4.4325,-4.4428,-4.4465,-4.448,-4.4271,-4.4269,-4.4268,-4.4266,0,0,-4.4316,-4.4318,-4.4334,-4.4342,-4.4347,-4.4375,-4.4423,-4.4447,-4.4467,-4.448,-4.4518,-4.4561,-4.4526,-4.4537,-4.4515,-4.4552,-4.4648,-4.4509,-4.4508,-4.4533,-4.4747,-4.4774,-4.4793,-4.4625,-4.4628,-4.463,-4.4746,0,-4.443,-4.4511,-4.4487,-4.4568,-4.4603,-4.4556,-4.4597,-4.4605,-4.4597,-4.4624,-4.4615,-4.4646,-4.4598,-4.4604,-4.4639,-4.4629,-4.469,-4.4621,-4.4659,-4.4661,-4.4657,-4.4812,-4.4841,-4.495,-4.4761,-4.4763,-4.4765,0,-4.4573,-4.4593,-4.4678,-4.4679,-4.4693,-4.473,-4.4751,-4.4778,-4.4787,-4.4778,-4.4792,-4.4762,-4.4809,-4.475,-4.4813,-4.4766,-4.4781,-4.4779,-4.4783,-4.4783,-4.4717,-4.4816,-4.4984,-4.5,-4.4788,-4.4786,-4.4784,0,-4.4684,-4.4732,-4.4789,-4.4797,-4.48,-4.4828,-4.483,-4.4835,-4.4852,-4.487,-4.4881,-4.4904,-4.4917,-4.4936,-4.4913,-4.4873,-4.498,-4.4919,-4.4973,-4.4973,-4.4995,-4.4994,-4.5167,-4.5008,-4.5008,-4.5008,-4.5007,0,-4.4812,-4.4866,-4.4839,-4.4874,-4.4933,-4.4905,-4.4964,-4.4961,-4.4967,-4.5,-4.4962,-4.4994,-4.4963,-4.4993,-4.4976,-4.503,-4.5036,-4.503,-4.5025,-4.5033,-4.5033,-4.504,-4.5031,-4.5012,-4.5011,-4.501,-4.501,0,-4.4944,-4.4929,-4.4988,-4.4987,-4.4988,-4.5032,-4.503,-4.5063,-4.5053,-4.5096,-4.5104,-4.5089,-4.5121,-4.5102,-4.5135,-4.5124,-4.5194,-4.5179,-4.5192,-4.5187,-4.5241,-4.5236,-4.5423,-4.5446,-4.5275,-4.5276,-4.5278,0,-4.5026,-4.5067,-4.5071,-4.5091,-4.5096,-4.5129,-4.5147,-4.5122,-4.5141,-4.5155,-4.5186,-4.5215,-4.5237,-4.5292,-4.5283,-4.5309,-4.5293,-4.5357,-4.5296,-4.5303,-4.5292,-4.5289,-4.5293,-4.5368,-4.537,-4.5372,-4.5373,0,-4.5173,-4.5164,-4.519,-4.5216,-4.5238,-4.5256,-4.5271,-4.529,-4.5265,-4.5289,-4.5323,-4.534,-4.5375,-4.5405,-4.5427,-4.5428,-4.5397,-4.5393,-4.5406,-4.5414,-4.5419,-4.5415,-4.5223,-4.5388,-4.5386,-4.5385,-4.5384,-4.5384,-4.5281,-4.5315,-4.5324,-4.5355,-4.5364,-4.538,-4.541,-4.5406,-4.5433,-4.546,-4.5444,-4.5484,-4.5492,-4.5519,-4.5525,-4.5555,-4.5529,-4.5549,-4.5554,-4.5558,-4.5565,-4.5416,-4.5559,-4.5559,-4.5558,-4.5558,-4.5558,0,-4.5424,-4.5428,-4.5458,-4.5481,-4.5506,-4.5476,-4.5492,-4.5514,-4.555,-4.5561,-4.5585,-4.5624,-4.5653,-4.5648,-4.5675,-4.57,-4.5686,-4.5708,-4.5704,-4.5705,-4.5588,-4.5573,-4.5718,-4.5718,-4.5718,-4.5718,-4.5718,-4.5718,-4.5501,-4.5557,-4.555,-4.561,-4.5613,-4.5653,-4.5664,-4.5678,-4.5687,-4.5733,-4.5758,-4.5755,-4.5759,-4.5786,-4.5812,-4.581,-4.5821,-4.5847,-4.584,-4.5729,-4.5713,-4.5698,-4.5684,-4.585,-4.5851,-4.5954,-4.5955,-4.5956]},{"header":{"parameterUnit":"m.s-1","parameterCategory":1,"la1":30.2991,"la2":30.254,"lo1":-89.0895,"lo2":-89.0444,"dy":0.0017,"dx":0.0017,"nx":28,"ny":28,"refTime":"2024-03-03T03:00:00:Z","depth":0,"parameterNumber":3,"parameterNumberName":"V-component_of_WINDS"},"data":[0,0,0,0,0,0,0,0,0,0,0,0,0,0,0,0,0,0,0,0,0,0,0,0,0,0,0,0,0,0,0,0,0,0,0,0,0,0,0,0,0,0,0,0,0,0,0,0,0,0,0,0,0,0,0,0,0,0,1.4831,1.4832,0,1.4893,1.4893,1.4894,1.4921,1.4921,1.4921,1.4921,1.4982,1.4984,1.4985,0,0,0,0,0,0,0,0,0,0,0,0,0,1.4736,1.4738,1.4831,1.4832,1.4832,1.4893,1.4893,1.4894,1.4921,1.4921,1.4921,1.4921,1.4982,1.4984,1.4986,0,0,0,0,0,0,0,0,0,0,0,0,0,1.4786,1.4738,1.4831,1.4853,1.4856,1.4892,1.4893,1.4894,1.4921,1.4921,1.4921,1.4921,1.4981,1.4983,1.4986,1.5004,0,0,1.4994,1.4995,0,0,0,0,0,0,0,0,1.4783,1.4789,1.4849,1.4852,1.4855,1.4899,1.4883,1.4931,1.4921,1.4896,1.4921,1.4921,1.4954,1.4959,1.4971,1.5007,1.5009,1.4994,1.4995,1.4996,1.4997,0,0,0,0,0,0,0,1.4779,1.4787,1.4855,1.485,1.4853,1.486,1.4867,1.4892,1.4925,1.4899,1.4901,1.4908,1.4956,1.4968,1.4973,1.501,1.4994,1.4996,1.4998,1.4999,1.5067,1.5067,0,0,0,0,0,0,1.4772,1.4784,1.4853,1.4857,1.4818,1.4862,1.487,1.4885,1.4925,1.4931,1.4908,1.4909,1.4964,1.497,1.4975,1.5001,1.4996,1.4999,1.5,1.5067,1.5067,1.5068,0,0,0,0,0,0,1.477,1.4778,1.4851,1.4821,1.4831,1.4864,1.4881,1.4886,1.4899,1.4932,1.4938,1.4914,1.4964,1.4971,1.4997,1.5003,1.5,1.5002,1.5066,1.5067,1.5067,1.5051,0,0,0,0,0,0,1.4767,1.4777,1.4784,1.4821,1.4832,1.4872,1.4881,1.4888,1.4903,1.4905,1.494,1.4945,1.4965,1.4993,1.5,1.5006,1.5004,1.5066,1.5067,1.5067,1.5051,1.5051,1.505,0,0,0,0,0,1.4764,1.4776,1.4785,1.4793,1.4842,1.4872,1.4879,1.4901,1.4904,1.4911,1.4933,1.4944,1.5001,1.4996,1.5003,1.5011,1.5066,1.5067,1.5067,1.5051,1.5051,1.505,0,0,0,0,0,0,1.4738,1.4781,1.4791,1.4815,1.484,1.4877,1.4887,1.49,1.4924,1.4924,1.4951,1.4958,1.4982,1.4999,1.4992,1.5032,1.5035,1.5037,1.502,1.502,1.5019,1.5015,1.5006,0,0,0,0,0,1.4735,1.4757,1.4793,1.4811,1.4824,1.4853,1.4867,1.4883,1.4909,1.492,1.4943,1.4968,1.4992,1.5007,1.503,1.5054,1.5063,1.5063,1.5062,1.5062,1.5064,1.508,1.5081,1.507,1.507,1.507,0,0,1.4729,1.4756,1.4767,1.4807,1.4828,1.485,1.4862,1.4884,1.4901,1.4923,1.4949,1.4968,1.4997,1.5023,1.5035,1.5038,1.5069,1.5063,1.5062,1.5064,1.508,1.5082,1.5082,1.507,1.507,1.507,0,0,1.473,1.4752,1.4771,1.4792,1.4825,1.4845,1.4849,1.4885,1.4898,1.4926,1.4944,1.4964,1.5004,1.5025,1.5041,1.5053,1.5065,1.506,1.5058,1.5074,1.5075,1.5076,1.5081,1.5083,1.5062,1.5062,1.5062,0,1.4718,1.4753,1.4778,1.4801,1.4818,1.4841,1.4861,1.488,1.4918,1.493,1.4932,1.4985,1.5006,1.5038,1.5041,1.5053,1.506,1.5056,1.5073,1.5074,1.5075,1.5081,1.5083,1.5061,1.5061,1.5061,1.5061,0,1.4738,1.4762,1.4773,1.4811,1.483,1.485,1.488,1.4896,1.491,1.493,1.4959,1.4986,1.5017,1.5025,1.5039,1.506,1.5061,1.5067,1.5071,1.5075,1.5081,1.5083,1.506,1.506,1.506,1.5061,0,0,1.4722,1.4776,1.478,1.4799,1.4838,1.4857,1.4879,1.4911,1.4925,1.4951,1.4971,1.5006,1.5013,1.5031,1.5047,1.5061,1.5071,1.5066,1.5067,1.5067,1.5099,1.5094,1.5096,1.508,1.508,1.5081,1.5097,0,1.4729,1.4771,1.4796,1.4828,1.4852,1.4875,1.4895,1.4921,1.4941,1.4964,1.4986,1.5011,1.5018,1.5029,1.5044,1.5067,1.5078,1.5066,1.5099,1.51,1.5092,1.5099,1.5093,1.5107,1.5099,1.5099,1.51,0,1.4742,1.477,1.4805,1.4844,1.4855,1.4872,1.4905,1.4926,1.4957,1.4971,1.4992,1.501,1.5035,1.5037,1.5073,1.5065,1.508,1.5094,1.5095,1.5099,1.51,1.5104,1.5112,1.5114,1.5103,1.5103,1.5103,0,1.4729,1.4775,1.4803,1.4818,1.4863,1.4876,1.4895,1.4926,1.4944,1.4972,1.4985,1.5015,1.5031,1.5054,1.508,1.5078,1.5114,1.5117,1.5127,1.5126,1.5133,1.5132,1.5144,1.5142,1.5142,1.5142,1.5142,0,1.4735,1.4755,1.4798,1.4815,1.4839,1.4868,1.4892,1.4913,1.4941,1.4963,1.4984,1.5004,1.5036,1.5061,1.5081,1.5109,1.5116,1.5128,1.5133,1.5126,1.5125,1.5137,1.5137,1.5142,1.5142,1.5142,1.5142,0,1.4724,1.4753,1.4785,1.4827,1.4838,1.4854,1.489,1.4908,1.493,1.4958,1.4966,1.5,1.503,1.5058,1.5097,1.5111,1.514,1.5146,1.513,1.5133,1.5141,1.514,1.5161,1.5166,1.5159,1.5159,1.5159,0,1.4725,1.4742,1.4787,1.4804,1.4824,1.485,1.487,1.4899,1.4919,1.4957,1.497,1.5002,1.5029,1.5076,1.5105,1.5136,1.5143,1.5149,1.5148,1.5142,1.5145,1.5144,1.5147,1.5148,1.5148,1.5148,1.5148,0,1.4726,1.474,1.4768,1.4801,1.4825,1.4852,1.488,1.4893,1.4928,1.4949,1.4981,1.5002,1.5044,1.5076,1.511,1.513,1.5146,1.5148,1.5152,1.5146,1.5136,1.5143,1.5129,1.5148,1.5148,1.5148,1.5148,1.5148,1.4722,1.4739,1.4774,1.4805,1.483,1.4856,1.4876,1.4902,1.4929,1.4967,1.4982,1.5015,1.5048,1.5097,1.5117,1.5143,1.5146,1.5152,1.5153,1.5154,1.5154,1.5132,1.5149,1.5149,1.515,1.515,1.515,0,1.4725,1.4749,1.4777,1.4817,1.4842,1.4856,1.4888,1.4908,1.4937,1.4967,1.4994,1.5032,1.5064,1.5096,1.513,1.5145,1.5153,1.5153,1.5152,1.5157,1.5148,1.5142,1.5146,1.5146,1.5146,1.5146,1.5146,1.5146,1.4729,1.476,1.4779,1.4823,1.4847,1.488,1.4898,1.4923,1.4947,1.4989,1.5016,1.5038,1.5069,1.5106,1.5136,1.5145,1.5157,1.5155,1.5166,1.5157,1.5157,1.5157,1.5152,1.5157,1.5157,1.5172,1.5173,1.5173]}]]